Meteo pe oră la Álmosd

Astăzi, 18 Ianuarie, Luni

Timp Temperatura Precipitaţii Vânt Presiune Umiditate
00:00 -9°C° 0 mm 1 m/s 754 mmHg 92%
01:00 -9°C° 0 mm 1 m/s 754 mmHg 93%
02:00 -9°C° 0 mm 1 m/s 754 mmHg 93%
03:00 -9°C° 0 mm 1 m/s 754 mmHg 93%
04:00 -9°C° 0 mm 1 m/s 754 mmHg 93%
05:00 -9°C° 0 mm 1 m/s 754 mmHg 93%
06:00 -9°C° 0 mm 1 m/s 754 mmHg 94%
07:00 -10°C° 0 mm 1 m/s 755 mmHg 94%
08:00 -9°C° 0 mm 1 m/s 755 mmHg 93%
09:00 -8°C° 0 mm 1 m/s 755 mmHg 92%
10:00 -8°C° 0 mm 2 m/s 755 mmHg 91%
11:00 -8°C° 0 mm 2 m/s 755 mmHg 90%
12:00 -7°C° 0 mm 2 m/s 755 mmHg 89%
13:00 -6°C° 0 mm 2 m/s 755 mmHg 88%
14:00 -6°C° 0 mm 2 m/s 755 mmHg 89%
15:00 -6°C° 0 mm 1 m/s 755 mmHg 91%
16:00 -6°C° 0 mm 1 m/s 756 mmHg 92%
17:00 -6°C° 0 mm 1 m/s 756 mmHg 92%
18:00 -7°C° 0 mm 1 m/s 756 mmHg 92%
19:00 -8°C° 0 mm 1 m/s 756 mmHg 92%
20:00 -9°C° 0 mm 2 m/s 756 mmHg 91%
21:00 -10°C° 0 mm 2 m/s 756 mmHg 91%
22:00 -10°C° 0 mm 2 m/s 756 mmHg 90%
23:00 -10°C° 0 mm 2 m/s 757 mmHg 91%

Mâine, 19 Ianuarie, Marţi

Timp Temperatura Precipitaţii Vânt Presiune Umiditate
00:00 -10°C° 0 mm 2 m/s 757 mmHg 92%
01:00 -12°C° 0 mm 2 m/s 757 mmHg 93%
02:00 -10°C° 0 mm 2 m/s 756 mmHg 94%
03:00 -10°C° 0 mm 2 m/s 756 mmHg 95%
04:00 -9°C° 0 mm 2 m/s 756 mmHg 96%
05:00 -9°C° 0 mm 2 m/s 756 mmHg 96%
06:00 -9°C° 0 mm 2 m/s 756 mmHg 96%
07:00 -9°C° 0 mm 2 m/s 756 mmHg 96%
08:00 -9°C° 0.1 mm 3 m/s 757 mmHg 95%
09:00 -7°C° 0.1 mm 3 m/s 757 mmHg 95%
10:00 -6°C° 0.1 mm 3 m/s 757 mmHg 94%
11:00 -5°C° 0.2 mm 4 m/s 756 mmHg 94%
12:00 -5°C° 0.2 mm 4 m/s 756 mmHg 94%
13:00 -4°C° 0.2 mm 4 m/s 756 mmHg 94%
14:00 -4°C° 0.2 mm 4 m/s 756 mmHg 95%
15:00 -4°C° 0.2 mm 4 m/s 755 mmHg 95%
16:00 -3°C° 0.2 mm 4 m/s 755 mmHg 96%
17:00 -3°C° 0 mm 4 m/s 755 mmHg 95%
18:00 -4°C° 0 mm 5 m/s 755 mmHg 94%
19:00 -4°C° 0 mm 5 m/s 755 mmHg 94%
20:00 -4°C° 0.1 mm 6 m/s 755 mmHg 94%
21:00 -4°C° 0.1 mm 6 m/s 754 mmHg 94%
22:00 -4°C° 0.1 mm 6 m/s 754 mmHg 93%
23:00 -4°C° 0.6 mm 7 m/s 754 mmHg 94%

Poimâine, 20 Ianuarie, Miercuri

Timp Temperatura Precipitaţii Vânt Presiune Umiditate
00:00 -4°C° 0.6 mm 7 m/s 753 mmHg 95%
01:00 -4°C° 0.6 mm 7 m/s 753 mmHg 96%
02:00 -4°C° 0.8 mm 7 m/s 753 mmHg 96%
03:00 -4°C° 0.8 mm 7 m/s 752 mmHg 95%
04:00 -4°C° 0.8 mm 7 m/s 752 mmHg 95%
05:00 -3°C° 0.1 mm 7 m/s 752 mmHg 94%
06:00 -3°C° 0.1 mm 6 m/s 752 mmHg 94%
07:00 -3°C° 0.1 mm 6 m/s 753 mmHg 94%
08:00 -3°C° 0.1 mm 6 m/s 753 mmHg 94%
09:00 -3°C° 0.1 mm 6 m/s 753 mmHg 94%
10:00 -2°C° 0.1 mm 7 m/s 753 mmHg 94%
11:00 -2°C° 0 mm 7 m/s 753 mmHg 95%
12:00 -2°C° 0 mm 7 m/s 753 mmHg 96%
13:00 -2°C° 0 mm 7 m/s 753 mmHg 97%
14:00 -2°C° 0 mm 6 m/s 753 mmHg 96%
15:00 -2°C° 0 mm 6 m/s 753 mmHg 95%
16:00 -2°C° 0 mm 6 m/s 752 mmHg 94%
17:00 -2°C° 0 mm 6 m/s 753 mmHg 91%
18:00 -2°C° 0 mm 6 m/s 753 mmHg 89%
19:00 -1°C° 0 mm 5 m/s 753 mmHg 87%
20:00 -1°C° 0 mm 5 m/s 753 mmHg 87%
21:00 -1°C° 0 mm 5 m/s 753 mmHg 87%
22:00 0°C° 0 mm 5 m/s 753 mmHg 87%
23:00 0°C° 0 mm 5 m/s 753 mmHg 88%

21 Ianuarie, Joi

Timp Temperatura Precipitaţii Vânt Presiune Umiditate
00:00 0°C° 0 mm 5 m/s 753 mmHg 89%
01:00 0°C° 0 mm 5 m/s 753 mmHg 90%
02:00 0°C° 0 mm 5 m/s 752 mmHg 90%
03:00 0°C° 0 mm 5 m/s 752 mmHg 90%
04:00 0°C° 0 mm 5 m/s 752 mmHg 89%
05:00 0°C° 0 mm 5 m/s 752 mmHg 88%
06:00 0°C° 0 mm 5 m/s 752 mmHg 87%
07:00 +1°C° 0 mm 5 m/s 752 mmHg 86%
08:00 +1°C° 0 mm 5 m/s 752 mmHg 88%
09:00 +1°C° 0 mm 5 m/s 751 mmHg 90%
10:00 +1°C° 0 mm 5 m/s 751 mmHg 91%
11:00 +1°C° 0 mm 5 m/s 751 mmHg 91%
12:00 +2°C° 0 mm 6 m/s 751 mmHg 90%
13:00 +2°C° 0 mm 6 m/s 751 mmHg 89%
14:00 +2°C° 0 mm 6 m/s 750 mmHg 87%
15:00 +2°C° 0 mm 6 m/s 750 mmHg 85%
16:00 +1°C° 0 mm 5 m/s 750 mmHg 83%
17:00 +1°C° 0 mm 5 m/s 750 mmHg 83%
18:00 +1°C° 0 mm 6 m/s 750 mmHg 83%
19:00 +1°C° 0 mm 6 m/s 750 mmHg 82%
20:00 +1°C° 0 mm 6 m/s 749 mmHg 83%
21:00 +1°C° 0 mm 6 m/s 749 mmHg 83%
22:00 +1°C° 0 mm 6 m/s 749 mmHg 83%
23:00 +1°C° 0 mm 6 m/s 749 mmHg 83%

22 Ianuarie, Vineri

Timp Temperatura Precipitaţii Vânt Presiune Umiditate
00:00 +1°C° 0 mm 6 m/s 749 mmHg 82%
01:00 +1°C° 0 mm 6 m/s 748 mmHg 81%
02:00 +1°C° 0 mm 6 m/s 748 mmHg 82%
03:00 +1°C° 0 mm 6 m/s 747 mmHg 83%
04:00 +2°C° 0 mm 6 m/s 747 mmHg 84%
05:00 +2°C° 0 mm 6 m/s 747 mmHg 84%
06:00 +2°C° 0 mm 6 m/s 747 mmHg 84%
07:00 +2°C° 0 mm 6 m/s 746 mmHg 84%
08:00 +3°C° 0 mm 6 m/s 746 mmHg 84%
09:00 +4°C° 0 mm 7 m/s 746 mmHg 84%
10:00 +4°C° 0 mm 7 m/s 745 mmHg 83%
11:00 +5°C° 0 mm 7 m/s 745 mmHg 81%
12:00 +6°C° 0 mm 7 m/s 745 mmHg 79%
13:00 +6°C° 0 mm 7 m/s 744 mmHg 77%
14:00 +6°C° 0 mm 7 m/s 744 mmHg 78%
15:00 +5°C° 0 mm 6 m/s 743 mmHg 80%
16:00 +6°C° 0 mm 5 m/s 743 mmHg 82%
17:00 +6°C° 0.3 mm 5 m/s 742 mmHg 84%
18:00 +5°C° 0.3 mm 5 m/s 742 mmHg 85%
19:00 +5°C° 0.3 mm 5 m/s 742 mmHg 87%
20:00 +4°C° 0.3 mm 6 m/s 742 mmHg 87%
21:00 +5°C° 0.3 mm 7 m/s 741 mmHg 86%
22:00 +5°C° 0.3 mm 7 m/s 741 mmHg 86%
23:00 +5°C° 0 mm 7 m/s 741 mmHg 86%

23 Ianuarie, Sâmbătă

Timp Temperatura Precipitaţii Vânt Presiune Umiditate
00:00 +5°C° 0 mm 7 m/s 741 mmHg 86%
01:00 +5°C° 0 mm 7 m/s 741 mmHg 87%
02:00 +5°C° 0.6 mm 7 m/s 741 mmHg 88%
03:00 +5°C° 0.6 mm 7 m/s 741 mmHg 90%
04:00 +5°C° 0.6 mm 7 m/s 741 mmHg 92%
05:00 +5°C° 0.1 mm 7 m/s 741 mmHg 92%
06:00 +5°C° 0.1 mm 7 m/s 741 mmHg 91%
07:00 +4°C° 0.1 mm 7 m/s 741 mmHg 91%
08:00 +4°C° 0 mm 7 m/s 742 mmHg 90%
09:00 +4°C° 0 mm 6 m/s 742 mmHg 89%
10:00 +4°C° 0 mm 6 m/s 742 mmHg 88%
11:00 +5°C° 0 mm 5 m/s 742 mmHg 85%
12:00 +5°C° 0 mm 5 m/s 742 mmHg 83%
13:00 +6°C° 0 mm 5 m/s 742 mmHg 81%
14:00 +5°C° 0 mm 4 m/s 742 mmHg 82%
15:00 +5°C° 0 mm 3 m/s 742 mmHg 83%
16:00 +4°C° 0 mm 3 m/s 742 mmHg 85%
17:00 +5°C° 0.1 mm 2 m/s 742 mmHg 87%
18:00 +4°C° 0.1 mm 2 m/s 742 mmHg 89%
19:00 +4°C° 0.1 mm 2 m/s 742 mmHg 92%
20:00 +5°C° 0.1 mm 1 m/s 742 mmHg 91%
21:00 +5°C° 0.1 mm 1 m/s 742 mmHg 91%
22:00 +5°C° 0.1 mm 1 m/s 742 mmHg 90%
23:00 +3°C° 0 mm 2 m/s 742 mmHg 91%
Arată mai mult

Formular de consimțământ

Meteoprog și furnizorii noștri de servicii pot stoca și accesa date personale, precum cookies, identificatori de dispozitiv sau alte tehnologii similare pe dispozitivul dumneavoastră și procesa astfel de date pentru a personaliza conținutul și reclamele, dar și pentru a oferi caracteristici de social media și pentru a analiza traficul.

  • Stocarea și/sau accesarea informațiilor pe dispozitivul dumneavoastră

    Cookies, identificatori de dispozitiv sau alte informații pot fi stocate sau accesate pe dispozitiv în scopurile indicate mai sus.

  • Reclame și conținut personalizat, evaluarea reclamelor și a conținutului, informații despre audiențe și dezvoltarea produselor

    Reclamele și conținutul pot fi personalizate pe baza unui profil. Pot fi adăugate date suplimentare pentru a personaliza mai bine reclamele și conținutul. Performanța reclamelor și conținutului poate fi măsurată. Pot fi obținute informații despre utilizatorii care au văzut reclamele și conținutul. Aceste date pot fi utilizate pentru a dezvolta sau îmbunătăți experiența utilizatorilor, sistemele și software-ul.

Dând clic pe ‘Sunt de acord’, permiteți utilizarea cookie-urilor menționate, a identificatorilor de dispozitiv, balizelor web sau altor tehnologii similare. Setările pot fi modificate din browser-ul dispozitivului dumneavoastră.

În anumite scopuri, interesele legitime pot prima asupra consimțământului. Puteți citi mai multe informații în acest sens în Politica privind Confidențialitatea Datelor și Cookie.